Fairfield, CA

12:26 AM PST on February 24, 2018 (GMT -0800)
Travis Air Force Base

Weather History for KSUU - March, 2013

Change the Weather History Date:

Monday, March 11, 2013

  Actual Average Record
Temperature  
Mean Temperature 52 °F -  
Max Temperature 70 °F 64 °F 82 °F (2005)
Min Temperature 34 °F 42 °F 30 °F (2006)
Degree Days  
Heating Degree Days 13    
Growing Degree Days 2 (Base 50)    
Moisture  
Dew Point 44 °F    
Average Humidity 76    
Maximum Humidity 100    
Minimum Humidity 41    
Precipitation  
Precipitation 0.00 in - - ()
Sea Level Pressure  
Sea Level Pressure 30.20 in    
Wind  
Wind Speed 5 mph (WNW)    
Max Wind Speed 10 mph    
Max Gust Speed -    
Visibility 10 miles    
Events      
Averages and records for this station are not official NWS values.
T = Trace of Precipitation, MM = Missing Value Source: NWS Daily Summary

Daily Weather History Graph

Daily Weather History Graph

Search for Another Location

Airport or City:

Trip Planner

Search our weather history database for the weather conditions in past years. The results will help you decide how hot, cold, wet, or windy it might be!

Date:

Astronomy

Mar. 11, 2013 Rise Set
Actual Time 7:24 AM PDT 7:11 PM PDT
Civil Twilight 6:58 AM PDT 7:37 PM PDT
Nautical Twilight 6:27 AM PDT 8:08 PM PDT
Astronomical Twilight 5:56 AM PDT 8:39 PM PDT
Moon 7:01 AM PDT (3/11) 7:28 PM PDT (3/11)
Length of Visible Light 12h 39m
Length of Day
11h 46m
Waning Crescent, 0% of the Moon is Illuminated
Mar 11
Waning Crescent
Mar 11
New
Mar 19
First Quarter
Mar 27
Full
Apr 2
Last Quarter

Hourly Weather History & Observations

Time (PDT) Temp. Windchill Dew Point Humidity Pressure Visibility Wind Dir Wind Speed Gust Speed Precip Events Conditions
12:58 AM 42.8 °F 39.3 °F 40.1 °F 90% 30.25 in 10.0 mi WSW 5.8 mph - N/A   Clear
1:58 AM 41.4 °F - 41.2 °F 99% 30.26 in 10.0 mi ESE 2.3 mph - N/A   Clear
2:58 AM 36.3 °F - 36.0 °F 99% 30.26 in 10.0 mi Calm Calm - N/A   Clear
3:58 AM 40.8 °F - 40.5 °F 99% 30.25 in 10.0 mi East 2.3 mph - N/A   Clear
4:58 AM 37.2 °F - 36.9 °F 99% 30.25 in 10.0 mi Variable 1.2 mph - N/A   Clear
5:58 AM 34.7 °F - 34.5 °F 99% 30.26 in 10.0 mi North 2.3 mph - N/A   Clear
6:58 AM 35.2 °F 29.5 °F 35.2 °F 100% 30.27 in 10.0 mi North 6.9 mph - N/A   Clear
7:58 AM 35.4 °F 31.5 °F 35.2 °F 99% 30.27 in 10.0 mi NNE 4.6 mph - N/A   Clear
8:58 AM 46.6 °F - 45.5 °F 96% 30.27 in 10.0 mi NE 2.3 mph - N/A   Clear
9:58 AM 52.3 °F - 47.5 °F 84% 30.27 in 10.0 mi NNE 6.9 mph - N/A   Clear
10:55 AM 56.8 °F - 49.8 °F 77% 30.26 in 10.0 mi North 5.8 mph - N/A   Clear
10:58 AM 56.8 °F - 49.8 °F 77% 30.27 in 10.0 mi NNE 5.8 mph - N/A   Clear
11:58 AM 61.2 °F - 50.2 °F 67% 30.25 in 10.0 mi Variable 1.2 mph - N/A   Clear
12:58 PM 65.1 °F - 44.6 °F 47% 30.22 in 10.0 mi NE 4.6 mph - N/A   Clear
1:58 PM 67.3 °F - 45.3 °F 45% 30.19 in 10.0 mi Variable 2.3 mph - N/A   Clear
2:58 PM 69.1 °F - 44.4 °F 41% 30.16 in 10.0 mi Variable 4.6 mph - N/A   Clear
3:58 PM 70.2 °F - 47.5 °F 44% 30.14 in 10.0 mi SSW 4.6 mph - N/A   Clear
4:58 PM 70.5 °F - 47.3 °F 44% 30.13 in 10.0 mi SW 8.1 mph - N/A   Clear
5:58 PM 69.6 °F - 46.6 °F 44% 30.11 in 10.0 mi WSW 9.2 mph - N/A   Clear
6:58 PM 64.6 °F - 48.2 °F 55% 30.10 in 10.0 mi WSW 10.4 mph - N/A   Clear
7:58 PM 58.1 °F - 48.4 °F 70% 30.10 in 10.0 mi West 9.2 mph - N/A   Clear
8:58 PM 58.8 °F - 46.6 °F 64% 30.11 in 10.0 mi SW 6.9 mph - N/A   Clear
9:58 PM 55.4 °F - 47.8 °F 76% 30.11 in 10.0 mi SW 10.4 mph - N/A   Clear
10:58 PM 52.9 °F - 49.6 °F 89% 30.11 in 10.0 mi WSW 10.4 mph - N/A   Clear
11:58 PM 50.4 °F - 49.8 °F 98% 30.11 in 10.0 mi WSW 10.4 mph - N/A   Clear